Location: *
(28.3744°N, 81.5492°W)
Time: 03:42:43
(UTC+00:00)

CZ-4C R/B - Pass Details

Date: 15 June 2025
Orbit: 499 x 1484 km, 63.4° (Epoch: 11 July)

Event Time Altitude Azimuth Distance (km) Brightness Sun altitude
Exits shadow 09:29:58 - 179° (S) 2,258 4.1 -11.9°
Reaches altitude 10° 09:31:25 10° 170° (S) 1,725 3.6 -11.6°
Maximum altitude 09:34:39 27° 110° (ESE) 1,065 3.2 -11.0°
Drops below altitude 10° 09:38:18 10° 52° (NE) 1,959 5.7 -10.4°
Sets 09:41:01 0° 41° (NE) 3,007 6.8 -9.9°
